Regional Weather Roundup
Issued by NWS

Home | Current Version | Previous Version | Graphics & Text | Print | Product List | Glossary Off
Versions: 1 2 3 4 5 6 7 8 9 10 11 12 13 14 15 16 17 18 19 20 21 22 23 24 25 26 27 28 29 30 31 32 33 34 35 36 37 38 39 40 41 42 43 44 45 46 47 48 49 50

000
ASUS43 KLSX 040510
RWRMO

WEATHER SUMMARY FOR MISSOURI
NATIONAL WEATHER SERVICE SPRINGFIELD MO
1100 PM CST SAT DEC 03 2016

NOTE: "FAIR" INDICATES FEW OR NO CLOUDS BELOW 12,000 FEET WITH NO
       SIGNIFICANT WEATHER AND/OR OBSTRUCTIONS TO VISIBILITY.
       CURRENT SKY AND/OR WEATHER CONDITIONS ARE NOT AVAILABLE FOR
       CHILLICOTHE AND FARMINGTON.

MOZ001>031-035>038-043-044-053-054-040600-
...NORTHERN AND WESTERN MISSOURI...

CITY           SKY/WX    TMP DP  RH WIND       PRES   REMARKS
KANSAS CTY INT LGT RAIN  42  36  79 S7        30.10S
KANSAS C DTWN  LGT RAIN  44  39  82 S9        30.11S
LEE`S SUMMIT   LGT RAIN  42  38  85 S8        30.11F
ST JOSEPH      LGT RAIN  39  37  92 NW5       30.12S
CHILLICOTHE      N/A     42  32  67 SE6       30.14F
KIRKSVILLE     CLOUDY    39  32  76 SE12      30.16F

$$
MOZ066>068-077>081-088>096-101>105-040600-
...SOUTHWEST MISSOURI...

CITY           SKY/WX    TMP DP  RH WIND       PRES   REMARKS
SPRINGFIELD    CLOUDY    39  36  89 SE13      30.09F
JOPLIN         LGT RAIN  40  39  97 E7        30.10S FOG
BRANSON        LGT RAIN  37  37 100 SE14      30.10F WCI  29

$$
MOZ032>034-039>042-045>050-055>058-069>072-040600-
...CENTRAL MISSOURI...

CITY           SKY/WX    TMP DP  RH WIND       PRES   REMARKS
COLUMBIA       LGT RAIN  39  34  82 SE8       30.17F
JEFFERSON CITY LGT RAIN  41  34  76 E7        30.18F
ROLLA          LGT RAIN  38  33  82 SE7       30.16F
SEDALIA        CLOUDY    43  33  68 SE8       30.14F
WHITEMAN AFB   CLOUDY    42  38  84 S7        30.11F
WARRENSBURG    CLOUDY    41  36  81 SE6       30.12S
OSAGE BEACH    LGT RAIN  39  36  89 E5        30.17F

$$
MOZ051-052-059>065-040600-
...EAST CENTRAL MISSOURI...

CITY           SKY/WX    TMP DP  RH WIND       PRES   REMARKS
ST LOUIS INTL  CLOUDY    41  32  70 E7        30.24S
SPIRIT OF STL  CLOUDY    40  33  76 E5        30.22F
ST CHARLES     CLOUDY    40  36  86 E6        30.23F

$$
MOZ072>076-082>087-097>100-106>115-040600-
...SOUTH CENTRAL AND SOUTHEAST MISSOURI...

CITY           SKY/WX    TMP DP  RH WIND       PRES   REMARKS
CAPE GIRARDEAU LGT RAIN  39  35  86 E7        30.21S
FARMINGTON     LGT RAIN  37  34  89 E3        30.20F
POPLAR BLUFF   LGT RAIN  40  38  93 E6        30.19F
WEST PLAINS    CLOUDY    37  35  92 E5        30.17R

$$




USA.gov is the U.S. government's official web portal to all federal, state and local government web resources and services.